Flag for Canada Weather past 2 weeks in Niagara Falls, Ontario, Canada

Now
24 °F

Passing clouds.


Feels Like: 16 °F
Forecast: 7 / 22 °F
Wind: 7 mph from Southwest

Location: Niagara Falls International Airport

Current Time: Jan 28, 2015 at 4:17:20 PM

Latest Report: Jan 28, 2015 at 2:53 PM


Visibility: 10 mi

Pressure: 30.35 "Hg

Humidity: 57%

Dew point: 11 °F

Location of Niagara FallsLocation

Historic Weather in Niagara Falls — Graph

°F

Niagara Falls temperature yesterday

Maximum temperature yesterday: 18 °F (at 1:53 PM)
Minimum temperature yesterday: 6 °F (at 11:53 PM)
Average temperature yesterday: 15 °F

Past Weeks' High & Low Weather Summary

 TemperatureHumidityPressure
High44 °F (Jan 18, 3:53 AM)93% (Jan 24, 4:53 PM)30.76 "Hg (Jan 24, 4:53 PM)
Low-5 °F (Jan 14, 7:53 AM)48% (Jan 16, 11:53 AM)29.51 "Hg (Jan 24, 1:01 PM)
Average20 °F73%30.07 "Hg
* Reported Jan 13 2:53 PM — Jan 28 2:53 PM, Niagara Falls, Weather by CustomWeather, © 2014

Note: Actual official high and low records may vary slightly from our data, if they occured in-between our weather recording intervals... More about our weather records

Advertising

Niagara Falls weather history for previous 24 hours

 ConditionsComfort  
Time TempWeatherWind HumidityBarometerVisibility
2:53 PM
Jan 28
24 °FPassing clouds.7 mph57%30.35 "Hg10 mi
1:53 PM23 °FPassing clouds.5 mph60%30.35 "Hg10 mi
12:53 PM22 °FPassing clouds.6 mph66%30.37 "Hg10 mi
11:53 AM21 °FPassing clouds.7 mph65%30.37 "Hg10 mi
10:53 AM19 °FPassing clouds.5 mph65%30.38 "Hg10 mi
9:53 AM14 °FPassing clouds.5 mph80%30.37 "Hg10 mi
8:53 AM7 °FPassing clouds.5 mph91%30.35 "Hg10 mi
7:53 AM5 °FSunny.No wind80%30.34 "Hg10 mi
6:53 AM6 °FClear.6 mph76%30.31 "Hg10 mi
5:53 AM5 °FClear.8 mph83%30.28 "Hg10 mi
4:53 AM7 °FClear.7 mph79%30.24 "Hg10 mi
3:53 AM5 °FClear.9 mph80%30.22 "Hg10 mi
2:53 AM4 °FClear.6 mph76%30.21 "Hg10 mi
1:53 AM1 °FClear.7 mph83%30.20 "Hg10 mi
12:53 AM3 °FClear.5 mph79%30.19 "Hg10 mi
11:53 PM
Jan 27
6 °FClear.3 mph76%30.19 "Hg10 mi
10:53 PM10 °FClear.3 mph73%30.18 "Hg10 mi
9:53 PM15 °FClear.6 mph64%30.16 "Hg10 mi
8:53 PM14 °FClear.6 mph58%30.16 "Hg10 mi
7:53 PM8 °FClear.5 mph76%30.17 "Hg10 mi
6:53 PM11 °FPassing clouds.No wind70%30.16 "Hg10 mi
5:53 PM13 °FPassing clouds.No wind64%30.16 "Hg10 mi
4:53 PM17 °FPartly sunny.No wind56%30.14 "Hg10 mi
Weather by CustomWeather, © 2014

See weather overviewHow to use our weather pages